Theta_e
318 314 307 308 314 315 317 318 316 310 312 312 312 319 323 334 337 333 335 341 348 354 353 352 352 351 351 349 348 345 344 343
311 308 312 312 316 317 316 317 313 312 311 315 319 320 326 336 338 332 333 341 347 354 353 353 353 352 351 350 349 348 346 346
309 309 313 315 318 317 314 314 314 312 311 313 318 323 327 335 338 334 333 338 344 353 354 354 353 353 352 352 351 350 348 348
303 307 312 315 317 316 315 314 313 310 311 315 320 323 327 334 338 337 336 339 344 353 354 354 353 353 353 352 351 351 351 349
306 305 308 312 317 314 313 313 313 314 310 316 318 323 329 335 338 338 339 339 345 348 353 354 353 353 353 352 351 351 351 351
306 304 305 314 314 315 315 314 316 315 311 314 319 323 330 335 335 335 338 340 343 347 347 347 348 354 353 352 352 352 351 347
303 304 307 314 313 315 317 316 316 318 318 320 320 322 327 330 331 333 334 337 340 341 345 346 346 348 352 351 349 349 345 343
309 310 310 312 313 314 314 315 316 317 319 319 320 320 323 326 326 329 331 334 337 341 344 346 344 346 345 342 340 342 341 341
311 313 313 312 313 316 313 311 315 315 319 322 321 321 321 324 325 326 330 333 335 340 344 344 341 339 335 337 337 339 340 341
314 315 313 311 315 313 315 315 319 320 321 321 320 320 320 321 324 326 327 330 334 338 340 341 336 333 333 333 334 334 336 339
315 315 315 315 312 313 313 317 320 321 321 319 319 321 322 322 324 325 324 327 330 335 336 336 335 334 333 334 333 334 333 335
313 313 314 311 311 311 312 316 315 316 317 318 319 320 321 322 322 323 323 324 329 332 334 334 334 335 334 335 334 333 333 334
307 309 307 308 303 304 310 312 312 314 315 317 319 320 320 324 324 326 323 325 327 330 333 333 334 334 335 333 333 332 333 335
304 304 305 305 298 306 310 310 310 312 314 316 318 320 322 324 326 326 323 325 327 326 331 333 334 334 333 333 333 334 335 336
299 303 303 304 300 306 310 309 309 311 312 314 316 320 324 323 324 322 324 327 327 330 330 332 334 333 334 335 334 335 336 336
296 302 301 300 301 305 308 308 309 311 313 314 316 318 323 322 322 323 326 329 330 331 332 333 332 333 334 334 334 335 335 336
300 302 300 301 302 304 308 308 309 310 312 314 316 321 318 318 321 324 326 328 330 330 332 331 331 331 332 331 332 334 334 336
299 302 301 301 301 305 307 307 309 310 311 314 316 318 317 317 320 323 325 327 329 330 331 332 333 334 335 335 334 334 335 335
295 300 302 300 299 302 306 308 309 312 314 316 316 317 317 317 320 323 324 327 329 331 332 333 335 334 334 332 332 331 332 333
296 295 293 300 291 300 302 303 308 312 314 315 314 317 317 318 320 322 325 328 330 331 332 334 334 333 333 330 328 331 331 333
Wind_Speed
3 3 6 3 8 3 5 9 4 3 3 4 4 4 3 4 17 13 17 17 18 24 22 21 19 17 16 16 15 14 14 14
5 11 7 5 4 2 10 3 3 2 7 3 5 2 4 10 17 14 16 17 19 23 21 20 19 18 17 16 15 15 15 14
5 8 7 9 13 6 6 4 5 4 4 5 3 2 5 11 14 15 16 16 17 21 21 19 19 18 17 16 15 14 14 15
9 10 9 8 10 4 6 3 2 5 4 5 2 4 7 10 15 14 16 17 16 20 20 20 18 17 16 15 15 14 14 15
7 8 9 6 3 5 4 2 3 1 3 4 4 7 8 12 14 12 12 14 13 17 18 18 17 16 15 14 13 13 14 14
6 6 7 5 3 5 2 1 2 3 4 6 3 2 6 9 11 11 12 14 15 15 16 16 15 15 14 13 13 13 13 11
9 8 7 3 5 2 4 7 5 7 7 6 2 4 8 8 11 12 11 14 14 15 14 14 13 12 13 15 14 13 12 12
10 10 8 2 5 7 6 12 19 10 9 6 4 6 12 16 17 18 17 17 15 14 14 13 10 11 10 9 8 8 8 9
18 11 7 12 13 8 13 18 20 14 18 19 12 11 15 18 22 24 17 13 15 12 12 13 10 7 5 4 5 5 7 8
24 14 11 15 11 13 16 26 25 19 17 18 17 13 16 19 21 21 18 16 14 14 12 11 7 6 6 5 5 4 5 8
19 20 18 19 21 20 24 24 25 21 19 16 16 18 16 20 19 17 17 14 15 14 12 10 9 6 5 6 5 4 5 6
21 19 22 22 25 12 19 22 26 22 22 22 19 18 15 16 20 18 14 15 14 15 13 11 9 8 6 5 4 5 6 7
14 18 17 16 18 18 23 23 20 21 22 22 20 17 17 19 18 18 12 13 13 14 14 13 11 9 6 5 4 6 7 8
12 16 10 11 20 18 20 15 19 21 18 19 19 18 17 18 15 12 14 15 16 14 16 13 10 7 5 4 5 6 6 6
12 11 12 14 17 12 13 12 17 21 21 21 21 20 16 15 14 15 17 16 16 16 17 14 9 5 4 5 5 6 6 5
13 10 9 15 18 17 20 15 18 20 18 18 17 22 14 10 11 14 16 17 17 14 14 12 7 4 3 4 5 6 6 5
16 7 8 16 17 20 20 16 18 19 18 18 18 16 7 2 8 12 13 16 17 16 13 10 6 4 4 5 5 5 5 6
14 11 7 15 19 18 18 19 17 20 20 19 17 10 1 3 8 12 14 16 17 15 13 9 6 4 2 2 3 3 3 4
19 4 8 9 21 20 14 13 16 17 17 16 14 10 6 8 10 12 15 17 15 14 12 9 7 4 3 3 3 3 3 3
17 8 12 2 17 19 17 20 16 16 12 9 5 3 7 10 12 14 16 14 14 13 11 9 8 5 5 3 2 1 2 1
Wind_Direction
219 203 222 221 207 227 311 309 246 251 248 182 222 216 231 168 162 164 171 173 184 184 188 188 191 192 196 202 205 211 220 228
239 235 242 238 202 301 324 11 180 260 262 246 239 203 199 152 166 166 176 179 184 186 190 190 190 195 198 203 208 215 223 231
249 251 258 248 268 255 281 276 301 192 254 259 238 206 163 162 172 177 179 186 187 191 188 191 195 196 201 207 211 217 226 234
243 245 251 261 251 223 242 237 291 189 258 256 31 205 180 177 185 189 180 186 190 189 189 192 195 198 204 210 214 221 231 239
262 265 267 244 184 194 180 347 63 342 249 284 286 226 189 190 188 190 186 187 188 191 193 192 195 199 205 214 219 224 231 239
238 254 268 197 190 159 37 16 93 191 251 305 343 212 192 201 197 190 186 196 192 195 194 196 197 199 204 213 221 228 235 240
239 213 244 206 223 65 344 289 279 242 245 282 312 168 181 200 211 203 200 197 202 196 198 198 196 198 201 219 227 230 234 233
235 237 260 281 310 326 285 296 285 262 258 262 267 235 216 206 215 210 204 201 199 198 197 198 195 197 204 215 227 233 234 235
262 254 270 282 280 294 292 289 281 296 305 308 283 246 234 230 220 218 210 202 200 191 193 193 194 187 196 210 222 227 233 231
253 269 280 275 302 272 273 268 280 290 283 287 287 265 236 236 230 221 214 201 186 188 184 186 186 190 196 212 210 221 233 233
250 269 265 274 269 268 283 280 279 280 281 268 268 267 249 239 238 228 225 204 185 179 180 177 183 186 207 216 213 231 241 239
252 263 270 267 268 278 264 274 278 284 275 275 270 264 263 239 234 225 212 199 181 178 178 172 183 192 206 212 217 231 240 237
238 245 255 271 270 254 264 267 277 272 275 276 269 269 246 243 232 222 209 178 185 178 176 174 183 198 207 216 220 239 246 241
226 231 244 215 270 277 270 275 280 281 277 278 275 269 260 247 235 214 182 174 179 181 172 174 185 191 209 217 230 240 243 240
236 228 245 214 274 256 271 284 285 280 280 278 282 283 260 251 224 186 174 169 175 175 169 174 180 186 204 234 236 241 238 233
233 226 223 238 253 274 281 286 277 281 284 279 272 269 289 242 201 178 173 169 166 166 160 163 159 168 209 243 242 235 230 231
233 227 245 250 268 278 285 287 281 281 280 273 268 281 314 255 180 171 167 159 158 156 158 154 155 174 213 230 226 230 237 236
247 259 248 278 280 280 284 282 284 283 276 269 275 283 302 154 168 170 161 160 149 153 156 161 162 171 190 217 240 263 253 246
245 255 244 290 280 275 279 282 291 278 261 272 274 272 182 160 165 155 156 154 150 150 154 161 165 147 157 218 222 230 225 224
240 233 256 237 286 278 290 286 284 283 274 273 261 160 158 154 151 157 155 150 145 149 154 160 163 167 202 237 239 202 274 295